Погода в Рабате

Марокко     34˚01′00″N   6˚50′25″W
темп.,
°C
ветер,
м/с
пор.,
м/с
влажн.,
%
обл.,
%
осадки,
мм/ч
давл.,
гПа
погр.,
м
5 декабря, сб
сб501:00+14˚зсз11156899 3.0 10101496
04:00+14˚зсз10146094 0.8 10101525
07:00+13˚зсз9126697 2.5 10111289
10:00+13˚сз8116293 1.8 10141320
13:00+14˚сз796093 3.1 10151353
16:00+14˚сз675939 0.8 10151395
19:00+13˚сз346354 1.1 1016694
22:00+13˚з236476 0.7 1018355
6 декабря, вс
вс601:00+12˚з247078 2.1 1018487
04:00+12˚з347386 1.3 1018446
07:00+12˚зюз247188 2.1 1018524
10:00+12˚ююз577689 0.8 1020344
13:00+14˚зюз457392 2.3 1020665
16:00+15˚сз336162 0.8 1019957
19:00+13˚з336943 0.8 1020509
22:00+13˚зюз237161 0.0 1022417
7 декабря, пн
пн701:00+12˚ююз457667 0.0 1022253
04:00+12˚ююз467811 0.1 1022266
07:00+12˚ююз587642 0.1 1021351
10:00+14˚юз597151 0.0 1023510
13:00+17˚зюз796644 0.0 1023926
16:00+17˚зюз797022 0.1 1022968
19:00+16˚зюз6107912 0.1 1022639
22:00+15˚юз6108224 0.3 1023584
8 декабря, вт
вт801:00+15˚юз588360 1.4 1023571
04:00+15˚юз478589 1.1 1023470
07:00+15˚з358295 1.8 1023464
10:00+16˚з357998 0.3 1025570
13:00+17˚зсз566895 0.6 1025970
16:00+17˚з676827 0.1 1023963
19:00+16˚з467660 0.4 1024534
22:00+16˚з467798 0.5 1025556
9 декабря, ср
ср901:00+15˚зсз358387 1.8 1026390
04:00+14˚с348051 1.1 1026333
07:00+13˚ссв237934 1.1 1026327
10:00+14˚в227453 0.0 1027335
13:00+17˚с226133 0.0 10271000
16:00+17˚с326219 0.0 1025724
19:00+14˚с227011 0.0 1026125
22:00+14˚всв017035 0.0 1027139